Time,TemperatureF,DewpointF,PressureIn,WindDirection,WindDirectionDegrees,WindSpeedMPH,WindSpeedGustMPH,Humidity,HourlyPrecipIn,Conditions,Clouds,dailyrainin,SoftwareType,DateUTC
2013-03-24 00:03:00,33.0,19.0,-100.00,NE,35,5.0,7.0,56,0.00,,,-99.99,,2013-03-24 04:03:00,
2013-03-24 00:13:00,33.0,19.0,-100.00,NNE,20,6.0,8.0,55,0.00,,,-99.99,,2013-03-24 04:13:00,
2013-03-24 00:23:00,33.0,19.0,-100.00,NNE,20,6.0,8.0,55,0.00,,,-99.99,,2013-03-24 04:23:00,
2013-03-24 00:33:00,33.0,18.0,-100.00,NE,55,3.0,7.0,55,0.00,,,-99.99,,2013-03-24 04:33:00,
2013-03-24 00:43:00,33.0,19.0,-100.00,NE,45,2.0,4.0,56,0.00,,,-99.99,,2013-03-24 04:43:00,
2013-03-24 00:52:00,33.0,19.0,-100.00,NE,45,2.0,4.0,56,0.00,,,-99.99,,2013-03-24 04:52:00,
2013-03-24 01:03:00,32.0,18.0,-100.00,East,85,2.0,4.0,56,0.00,,,-99.99,,2013-03-24 05:03:00,
2013-03-24 01:12:00,32.0,18.0,-100.00,ENE,60,1.0,6.0,57,0.00,,,-99.99,,2013-03-24 05:12:00,
2013-03-24 01:23:00,32.0,18.0,-100.00,ENE,60,1.0,6.0,57,0.00,,,-99.99,,2013-03-24 05:23:00,
2013-03-24 01:32:00,32.0,18.0,-100.00,NE,50,2.0,4.0,56,0.00,,,-99.99,,2013-03-24 05:32:00,
2013-03-24 01:42:00,32.0,18.0,-100.00,ENE,70,1.0,4.0,56,0.00,,,-99.99,,2013-03-24 05:42:00,
2013-03-24 01:52:00,32.0,18.0,-100.00,NNE,30,2.0,3.0,56,0.00,,,-99.99,,2013-03-24 05:52:00,
2013-03-24 02:02:00,32.0,18.0,-100.00,NNE,30,2.0,3.0,56,0.00,,,-99.99,,2013-03-24 06:02:00,
2013-03-24 02:12:00,32.0,18.0,-100.00,NNE,30,2.0,6.0,56,0.00,,,-99.99,,2013-03-24 06:12:00,
2013-03-24 02:22:00,30.0,16.0,-100.00,North,0,0.0,2.0,56,0.00,,,-99.99,,2013-03-24 06:22:00,
2013-03-24 02:32:00,30.0,16.0,-100.00,North,0,0.0,2.0,56,0.00,,,-99.99,,2013-03-24 06:32:00,
2013-03-24 02:42:00,28.0,16.0,-100.00,SSW,205,3.0,4.0,60,0.00,,,-99.99,,2013-03-24 06:42:00,
2013-03-24 02:52:00,28.0,16.0,-100.00,SSW,205,3.0,4.0,60,0.00,,,-99.99,,2013-03-24 06:52:00,
2013-03-24 03:02:00,28.0,16.0,-100.00,SSW,210,1.0,1.0,62,0.00,,,-99.99,,2013-03-24 07:02:00,
2013-03-24 03:12:00,28.0,17.0,-100.00,SSE,160,1.0,1.0,64,0.00,,,-99.99,,2013-03-24 07:12:00,
2013-03-24 03:22:00,28.0,17.0,-100.00,SSE,160,1.0,1.0,64,0.00,,,-99.99,,2013-03-24 07:22:00,
2013-03-24 03:32:00,29.0,18.0,-100.00,NNW,335,2.0,3.0,64,0.00,,,-99.99,,2013-03-24 07:32:00,
2013-03-24 03:42:00,28.0,18.0,-100.00,North,350,1.0,1.0,65,0.00,,,-99.99,,2013-03-24 07:42:00,
2013-03-24 03:52:00,28.0,18.0,-100.00,North,350,1.0,1.0,65,0.00,,,-99.99,,2013-03-24 07:52:00,
2013-03-24 04:03:00,29.0,18.0,-100.00,North,0,1.0,2.0,65,0.00,,,-99.99,,2013-03-24 08:03:00,
2013-03-24 04:12:00,29.0,18.0,-100.00,NNE,25,1.0,2.0,65,0.00,,,-99.99,,2013-03-24 08:12:00,
2013-03-24 04:22:00,29.0,18.0,-100.00,NE,35,1.0,2.0,65,0.00,,,-99.99,,2013-03-24 08:22:00,
2013-03-24 04:32:00,29.0,18.0,-100.00,NE,35,1.0,2.0,65,0.00,,,-99.99,,2013-03-24 08:32:00,
2013-03-24 04:42:00,28.0,18.0,-100.00,NE,55,0.0,3.0,65,0.00,,,-99.99,,2013-03-24 08:42:00,
2013-03-24 04:52:00,28.0,18.0,-100.00,NE,55,0.0,3.0,65,0.00,,,-99.99,,2013-03-24 08:52:00,
2013-03-24 05:02:00,28.0,18.0,-100.00,South,175,2.0,4.0,68,0.00,,,-99.99,,2013-03-24 09:02:00,
2013-03-24 05:12:00,27.0,18.0,-100.00,SSE,155,0.0,1.0,69,0.00,,,-99.99,,2013-03-24 09:12:00,
2013-03-24 05:22:00,27.0,18.0,-100.00,SSE,155,0.0,1.0,69,0.00,,,-99.99,,2013-03-24 09:22:00,
2013-03-24 05:33:00,27.0,18.0,-100.00,South,180,2.0,4.0,70,0.00,,,-99.99,,2013-03-24 09:33:00,
2013-03-24 05:42:00,27.0,19.0,-100.00,SW,215,0.0,2.0,71,0.00,,,-99.99,,2013-03-24 09:42:00,
2013-03-24 05:52:00,27.0,19.0,-100.00,SE,135,0.0,2.0,72,0.00,,,-99.99,,2013-03-24 09:52:00,
2013-03-24 06:03:00,27.0,19.0,-100.00,SE,135,0.0,2.0,72,0.00,,,-99.99,,2013-03-24 10:03:00,
2013-03-24 06:12:00,27.0,19.0,-100.00,SSE,165,1.0,2.0,72,0.00,,,-99.99,,2013-03-24 10:12:00,
2013-03-24 06:22:00,27.0,20.0,-100.00,ESE,120,2.0,3.0,73,0.00,,,-99.99,,2013-03-24 10:22:00,
2013-03-24 06:33:00,27.0,20.0,-100.00,ESE,120,2.0,3.0,73,0.00,,,-99.99,,2013-03-24 10:33:00,
2013-03-24 06:42:00,27.0,20.0,-100.00,SSE,155,2.0,4.0,73,0.00,,,-99.99,,2013-03-24 10:42:00,
2013-03-24 06:52:00,27.0,20.0,-100.00,SSE,155,2.0,4.0,73,0.00,,,-99.99,,2013-03-24 10:52:00,
2013-03-24 07:03:00,27.0,20.0,-100.00,ESE,120,0.0,4.0,73,0.00,,,-99.99,,2013-03-24 11:03:00,
2013-03-24 07:12:00,27.0,20.0,-100.00,ESE,105,2.0,4.0,74,0.00,,,-99.99,,2013-03-24 11:12:00,
2013-03-24 07:22:00,27.0,20.0,-100.00,ESE,105,2.0,4.0,74,0.00,,,-99.99,,2013-03-24 11:22:00,
2013-03-24 07:33:00,27.0,20.0,-100.00,ESE,105,1.0,3.0,75,0.00,,,-99.99,,2013-03-24 11:33:00,
2013-03-24 07:42:00,27.0,20.0,-100.00,ENE,60,4.0,4.0,75,0.00,,,-99.99,,2013-03-24 11:42:00,
2013-03-24 07:52:00,27.0,20.0,-100.00,ENE,60,4.0,4.0,75,0.00,,,-99.99,,2013-03-24 11:52:00,
2013-03-24 08:03:00,28.0,21.0,-100.00,ESE,115,1.0,4.0,75,0.00,,,-99.99,,2013-03-24 12:03:00,
2013-03-24 08:12:00,28.0,21.0,-100.00,East,85,2.0,3.0,75,0.00,,,-99.99,,2013-03-24 12:12:00,
2013-03-24 08:22:00,28.0,21.0,-100.00,East,85,2.0,3.0,75,0.00,,,-99.99,,2013-03-24 12:22:00,
2013-03-24 08:32:00,28.0,21.0,-100.00,SE,145,2.0,4.0,75,0.00,,,-99.99,,2013-03-24 12:32:00,
2013-03-24 08:42:00,29.0,22.0,-100.00,East,90,1.0,2.0,76,0.00,,,-99.99,,2013-03-24 12:42:00,
2013-03-24 08:52:00,29.0,22.0,-100.00,East,90,1.0,2.0,76,0.00,,,-99.99,,2013-03-24 12:52:00,
2013-03-24 09:02:00,30.0,23.0,-100.00,SE,125,2.0,4.0,75,0.00,,,-99.99,,2013-03-24 13:02:00,
2013-03-24 09:12:00,31.0,24.0,-100.00,East,90,1.0,2.0,73,0.00,,,-99.99,,2013-03-24 13:12:00,
2013-03-24 09:22:00,31.0,24.0,-100.00,East,90,1.0,2.0,73,0.00,,,-99.99,,2013-03-24 13:22:00,
2013-03-24 09:32:00,32.0,23.0,-100.00,East,100,1.0,3.0,69,0.00,,,-99.99,,2013-03-24 13:32:00,
2013-03-24 09:42:00,34.0,23.0,-100.00,ENE,75,3.0,6.0,65,0.00,,,-99.99,,2013-03-24 13:42:00,
2013-03-24 09:52:00,34.0,23.0,-100.00,ENE,75,3.0,6.0,65,0.00,,,-99.99,,2013-03-24 13:52:00,
2013-03-24 10:02:00,36.0,23.0,-100.00,East,80,2.0,6.0,61,0.00,,,-99.99,,2013-03-24 14:02:00,
2013-03-24 10:12:00,36.0,24.0,-100.00,NNW,340,2.0,6.0,61,0.00,,,-99.99,,2013-03-24 14:12:00,
2013-03-24 10:22:00,36.0,24.0,-100.00,NNW,340,2.0,6.0,61,0.00,,,-99.99,,2013-03-24 14:22:00,
2013-03-24 10:32:00,36.0,25.0,-100.00,NNE,15,4.0,7.0,63,0.00,,,-99.99,,2013-03-24 14:32:00,
2013-03-24 10:42:00,37.0,24.0,-100.00,NNE,30,4.0,7.0,60,0.00,,,-99.99,,2013-03-24 14:42:00,
2013-03-24 10:52:00,37.0,24.0,-100.00,NNE,30,4.0,7.0,60,0.00,,,-99.99,,2013-03-24 14:52:00,
2013-03-24 11:02:00,37.0,22.0,-100.00,NE,40,5.0,13.0,53,0.00,,,-99.99,,2013-03-24 15:02:00,
2013-03-24 11:12:00,38.0,21.0,-100.00,East,80,6.0,12.0,51,0.00,,,-99.99,,2013-03-24 15:12:00,
2013-03-24 11:22:00,38.0,21.0,-100.00,East,80,6.0,12.0,51,0.00,,,-99.99,,2013-03-24 15:22:00,
2013-03-24 11:33:00,39.0,21.0,-100.00,ENE,70,3.0,9.0,49,0.00,,,-99.99,,2013-03-24 15:33:00,
2013-03-24 11:43:00,40.0,22.0,-100.00,South,180,1.0,7.0,49,0.00,,,-99.99,,2013-03-24 15:43:00,
2013-03-24 11:53:00,40.0,22.0,-100.00,South,180,1.0,7.0,49,0.00,,,-99.99,,2013-03-24 15:53:00,
2013-03-24 12:03:00,39.0,21.0,-100.00,ENE,60,2.0,7.0,48,0.00,,,-99.99,,2013-03-24 16:03:00,
2013-03-24 12:12:00,40.0,21.0,-100.00,ESE,110,2.0,5.0,47,0.00,,,-99.99,,2013-03-24 16:12:00,
2013-03-24 12:23:00,40.0,21.0,-100.00,ESE,115,2.0,6.0,47,0.00,,,-99.99,,2013-03-24 16:23:00,
2013-03-24 12:33:00,40.0,21.0,-100.00,ESE,115,2.0,6.0,47,0.00,,,-99.99,,2013-03-24 16:33:00,
2013-03-24 12:42:00,40.0,21.0,-100.00,SSE,165,1.0,4.0,46,0.00,,,-99.99,,2013-03-24 16:42:00,
2013-03-24 12:52:00,40.0,21.0,-100.00,SSE,165,1.0,4.0,46,0.00,,,-99.99,,2013-03-24 16:52:00,
2013-03-24 13:03:00,40.0,21.0,-100.00,South,185,3.0,7.0,46,0.00,,,-99.99,,2013-03-24 17:03:00,
2013-03-24 13:12:00,40.0,21.0,-100.00,ENE,60,6.0,9.0,46,0.00,,,-99.99,,2013-03-24 17:12:00,
2013-03-24 13:23:00,40.0,21.0,-100.00,ENE,60,6.0,9.0,46,0.00,,,-99.99,,2013-03-24 17:23:00,
2013-03-24 13:33:00,41.0,22.0,-100.00,East,85,3.0,9.0,45,0.00,,,-99.99,,2013-03-24 17:33:00,
2013-03-24 13:42:00,42.0,22.0,-100.00,SSE,150,4.0,8.0,44,0.00,,,-99.99,,2013-03-24 17:42:00,
2013-03-24 13:52:00,42.0,22.0,-100.00,SSE,150,4.0,8.0,44,0.00,,,-99.99,,2013-03-24 17:52:00,
2013-03-24 14:03:00,42.0,22.0,-100.00,SW,230,2.0,7.0,44,0.00,,,-99.99,,2013-03-24 18:03:00,
2013-03-24 14:12:00,42.0,21.0,-100.00,East,100,2.0,9.0,43,0.00,,,-99.99,,2013-03-24 18:12:00,
2013-03-24 14:22:00,42.0,21.0,-100.00,East,100,2.0,9.0,43,0.00,,,-99.99,,2013-03-24 18:22:00,
2013-03-24 14:33:00,42.0,21.0,-100.00,SE,125,6.0,10.0,43,0.00,,,-99.99,,2013-03-24 18:33:00,
2013-03-24 14:43:00,42.0,21.0,-100.00,ENE,70,5.0,9.0,43,0.00,,,-99.99,,2013-03-24 18:43:00,
2013-03-24 14:52:00,42.0,21.0,-100.00,ENE,70,5.0,9.0,43,0.00,,,-99.99,,2013-03-24 18:52:00,
2013-03-24 15:03:00,42.0,21.0,-100.00,East,80,6.0,7.0,43,0.00,,,-99.99,,2013-03-24 19:03:00,
2013-03-24 15:12:00,42.0,21.0,-100.00,ENE,75,3.0,9.0,43,0.00,,,-99.99,,2013-03-24 19:12:00,
2013-03-24 15:22:00,42.0,21.0,-100.00,ENE,75,3.0,9.0,43,0.00,,,-99.99,,2013-03-24 19:22:00,
2013-03-24 15:32:00,42.0,21.0,-100.00,ESE,115,2.0,9.0,43,0.00,,,-99.99,,2013-03-24 19:32:00,
2013-03-24 15:42:00,43.0,21.0,-100.00,SSE,155,2.0,4.0,42,0.00,,,-99.99,,2013-03-24 19:42:00,
2013-03-24 15:52:00,43.0,21.0,-100.00,SSE,155,2.0,4.0,42,0.00,,,-99.99,,2013-03-24 19:52:00,
2013-03-24 16:03:00,42.0,21.0,-100.00,ESE,120,2.0,7.0,42,0.00,,,-99.99,,2013-03-24 20:03:00,
2013-03-24 16:12:00,42.0,21.0,-100.00,NNW,340,1.0,4.0,43,0.00,,,-99.99,,2013-03-24 20:12:00,
2013-03-24 16:22:00,42.0,20.0,-100.00,East,95,3.0,4.0,43,0.00,,,-99.99,,2013-03-24 20:22:00,
2013-03-24 16:32:00,42.0,20.0,-100.00,East,95,3.0,4.0,43,0.00,,,-99.99,,2013-03-24 20:32:00,
2013-03-24 16:42:00,41.0,20.0,-100.00,ESE,110,2.0,4.0,43,0.00,,,-99.99,,2013-03-24 20:42:00,
2013-03-24 16:52:00,41.0,20.0,-100.00,SE,125,1.0,4.0,43,0.00,,,-99.99,,2013-03-24 20:52:00,
2013-03-24 17:02:00,41.0,20.0,-100.00,SE,125,1.0,4.0,43,0.00,,,-99.99,,2013-03-24 21:02:00,
2013-03-24 17:12:00,41.0,20.0,-100.00,SE,145,1.0,4.0,43,0.00,,,-99.99,,2013-03-24 21:12:00,
2013-03-24 17:22:00,41.0,20.0,-100.00,SE,130,2.0,4.0,43,0.00,,,-99.99,,2013-03-24 21:22:00,
2013-03-24 17:33:00,41.0,20.0,-100.00,SE,130,2.0,4.0,43,0.00,,,-99.99,,2013-03-24 21:33:00,
2013-03-24 17:43:00,41.0,20.0,-100.00,East,100,4.0,6.0,43,0.00,,,-99.99,,2013-03-24 21:43:00,
2013-03-24 17:52:00,41.0,20.0,-100.00,East,100,4.0,6.0,43,0.00,,,-99.99,,2013-03-24 21:52:00,
2013-03-24 18:03:00,41.0,21.0,-100.00,ESE,120,2.0,6.0,44,0.00,,,-99.99,,2013-03-24 22:03:00,
2013-03-24 18:13:00,41.0,21.0,-100.00,ESE,105,1.0,5.0,44,0.00,,,-99.99,,2013-03-24 22:13:00,
2013-03-24 18:23:00,41.0,21.0,-100.00,SE,130,2.0,4.0,44,0.00,,,-99.99,,2013-03-24 22:23:00,
2013-03-24 18:33:00,41.0,21.0,-100.00,SE,130,2.0,4.0,44,0.00,,,-99.99,,2013-03-24 22:33:00,
2013-03-24 18:43:00,41.0,21.0,-100.00,ESE,120,1.0,4.0,44,0.00,,,-99.99,,2013-03-24 22:43:00,
2013-03-24 18:52:00,41.0,21.0,-100.00,ESE,120,1.0,4.0,44,0.00,,,-99.99,,2013-03-24 22:52:00,
2013-03-24 19:03:00,41.0,21.0,-100.00,SE,145,2.0,3.0,44,0.00,,,-99.99,,2013-03-24 23:03:00,
2013-03-24 19:12:00,40.0,21.0,-100.00,SSW,195,4.0,6.0,46,0.00,,,-99.99,,2013-03-24 23:12:00,
2013-03-24 19:22:00,40.0,21.0,-100.00,SSW,195,4.0,6.0,46,0.00,,,-99.99,,2013-03-24 23:22:00,
2013-03-24 19:32:00,40.0,21.0,-100.00,SSW,200,1.0,5.0,47,0.00,,,-99.99,,2013-03-24 23:32:00,
2013-03-24 19:42:00,39.0,21.0,-100.00,SSW,195,2.0,6.0,48,0.00,,,-99.99,,2013-03-24 23:42:00,
2013-03-24 19:52:00,39.0,21.0,-100.00,SSW,195,2.0,6.0,48,0.00,,,-99.99,,2013-03-24 23:52:00,
2013-03-24 20:02:00,39.0,21.0,-100.00,SW,220,2.0,6.0,48,0.00,,,-99.99,,2013-03-25 00:02:00,
2013-03-24 20:12:00,39.0,21.0,-100.00,SW,215,1.0,4.0,49,0.00,,,-99.99,,2013-03-25 00:12:00,
2013-03-24 20:22:00,39.0,21.0,-100.00,SW,215,1.0,4.0,49,0.00,,,-99.99,,2013-03-25 00:22:00,
2013-03-24 20:32:00,38.0,21.0,-100.00,SW,225,2.0,4.0,49,0.00,,,-99.99,,2013-03-25 00:32:00,
2013-03-24 20:42:00,37.0,22.0,-100.00,WSW,240,6.0,11.0,55,0.00,,,-99.99,,2013-03-25 00:42:00,
2013-03-24 20:52:00,36.0,26.0,-100.00,SW,215,5.0,11.0,67,0.00,,,-99.99,,2013-03-25 00:52:00,
2013-03-24 21:02:00,36.0,26.0,-100.00,SW,215,5.0,11.0,67,0.00,,,-99.99,,2013-03-25 01:02:00,
2013-03-24 21:12:00,35.0,29.0,-100.00,WSW,255,6.0,13.0,77,0.00,,,-99.99,,2013-03-25 01:12:00,
2013-03-24 21:22:00,35.0,29.0,-100.00,WSW,255,6.0,13.0,77,0.00,,,-99.99,,2013-03-25 01:22:00,
2013-03-24 21:32:00,34.0,30.0,-100.00,WSW,250,4.0,7.0,84,0.00,,,-99.99,,2013-03-25 01:32:00,
2013-03-24 21:42:00,34.0,30.0,-100.00,West,275,2.0,7.0,86,0.00,,,-99.99,,2013-03-25 01:42:00,
2013-03-24 21:52:00,34.0,30.0,-100.00,West,275,2.0,7.0,86,0.00,,,-99.99,,2013-03-25 01:52:00,
2013-03-24 22:02:00,34.0,31.0,-100.00,WSW,245,3.0,6.0,88,0.00,,,-99.99,,2013-03-25 02:02:00,
2013-03-24 22:12:00,34.0,31.0,-100.00,West,275,2.0,5.0,89,0.00,,,-99.99,,2013-03-25 02:12:00,
2013-03-24 22:22:00,34.0,31.0,-100.00,West,275,2.0,5.0,89,0.00,,,-99.99,,2013-03-25 02:22:00,
2013-03-24 22:33:00,34.0,31.0,-100.00,West,260,4.0,7.0,91,0.00,,,-99.99,,2013-03-25 02:33:00,
2013-03-24 22:42:00,34.0,32.0,-100.00,WSW,240,4.0,7.0,92,0.00,,,-99.99,,2013-03-25 02:42:00,
2013-03-24 22:52:00,33.0,32.0,-100.00,WSW,245,1.0,4.0,93,0.00,,,-99.99,,2013-03-25 02:52:00,
2013-03-24 23:03:00,33.0,32.0,-100.00,WSW,245,1.0,4.0,93,0.00,,,-99.99,,2013-03-25 03:03:00,
2013-03-24 23:13:00,33.0,32.0,-100.00,West,260,4.0,6.0,94,0.00,,,-99.99,,2013-03-25 03:13:00,
2013-03-24 23:23:00,33.0,32.0,-100.00,West,260,4.0,6.0,94,0.00,,,-99.99,,2013-03-25 03:23:00,
2013-03-24 23:33:00,33.0,32.0,-100.00,WSW,245,4.0,6.0,94,0.00,,,-99.99,,2013-03-25 03:33:00,
2013-03-24 23:43:00,33.0,32.0,-100.00,SSW,195,1.0,6.0,95,0.00,,,-99.99,,2013-03-25 03:43:00,
2013-03-24 23:53:00,33.0,32.0,-100.00,SSW,195,1.0,6.0,95,0.00,,,-99.99,,2013-03-25 03:53:00,